Location: Chasteiran
(44.9833°N, 7.1000°E)
Time: 04:30:54
(UTC+00:00)

Daily predictions for brighter satellites

Satellite Brightness Start Highest point End
(mag) Time Altitude Azimuth Time Altitude Azimuth Time Altitude Azimuth
ATLAS 2AS CENTAUR R/B 4.5 01:59:55 26° ENE 01:59:55 26° ENE 02:03:15 10° NE
H-2A R/B 3.7 02:59:41 10° NNE 03:02:39 29° ENE 03:02:39 29° ENE
Cosmos 1980 Rocket 2.6 03:23:21 57° ESE 03:23:21 57° ESE 03:28:39 10° NNE
NOSS 3-1 (A) 3.9 03:23:44 75° WNW 03:24:31 83° SW 03:33:31 10° SSE
USA 281 4.0 03:20:21 10° SE 03:26:36 49° ENE 03:32:52 10° NNW
IRS-1D 4.1 03:25:19 10° NNE 03:29:32 53° ENE 03:29:32 53° ENE
ATLAS 3B R/B 3.1 03:27:51 39° NNW 03:31:04 70° NE 03:38:44 10° SE
Meteor 2-5 Rocket 4.5 03:30:30 10° S 03:36:04 52° E 03:41:33 10° NNE
USA 267 4.4 03:31:30 10° ENE 03:37:07 32° N 03:38:49 28° NNW
Cosmos 1697 Rocket 3.7 03:42:44 35° N 03:42:44 35° N 03:46:12 10° NNE
ATLAS CENTAUR R/B 3.6 03:43:57 16° NNE 03:43:57 16° NNE 03:44:49 10° NNE
ATLAS 2AS CENTAUR R/B 2.9 03:47:22 55° NW 03:47:33 55° NW 03:54:25 10° NNE
Lacrosse 4 Rocket 2.3 03:49:00 45° ESE 03:49:00 45° ESE 03:52:02 10° SE
Cosmos 1939 Rocket 4.1 03:46:29 10° NNE 03:49:12 36° ENE 03:49:12 36° ENE
Cosmos 1818 3.4 03:51:21 80° SSW 03:51:41 89° ESE 03:57:12 10° NE
Cosmos 2315 Rocket 4.4 03:46:47 10° N 03:53:08 65° E 03:59:26 10° SSE
Cosmos 1302 Rocket 3.9 03:53:25 60° S 03:54:22 81° ESE 03:59:34 10° NNE
Cosmos 2242 Rocket 3.8 03:54:08 63° SE 03:54:36 69° E 03:59:02 10° NNE
USA 59 Rocket 1.7 03:53:36 22° NNE 03:54:41 25° NE 03:58:39 10° E
CZ-2C R/B 4.2 03:55:18 10° N 03:56:42 19° N 03:56:42 19° N
Cosmos 2263 Rocket 2.0 04:00:01 53° NW 04:01:25 82° WSW 04:07:01 10° SSE
Cosmos 2082 3.6 04:03:04 34° NNW 04:05:42 87° ENE 04:11:22 10° SSE
Cosmos 2266 Rocket 3.9 04:03:13 10° SSW 04:09:36 69° W 04:16:00 10° N
Cosmos 2227 Rocket 4.0 04:13:54 16° SSW 04:13:54 16° SSW 04:15:14 10° SSW
Cosmos 2285 Rocket 4.2 04:11:34 45° WSW 04:11:34 45° WSW 04:17:27 10° S
BREEZE-M DEB (TANK) 3.0 04:14:05 39° NNE 04:14:05 39° NNE 04:18:41 10° E
Cosmos 1437 Rocket 4.0 04:15:09 10° SSE 04:18:29 38° E 04:21:51 10° NNE
SL-16 R/B 3.5 04:17:20 10° S 04:22:35 40° ESE 04:27:51 10° NE
Gbstr 26 Del rocket 3.5 04:22:25 35° SSW 04:24:15 65° SE 04:29:34 10° ENE
SL-08 RB Rocket 4.0 04:20:23 10° NNE 04:24:58 68° E 04:29:33 10° S
USA 229 DEB 4.0 04:21:54 18° NW 04:27:55 84° NE 04:36:06 10° SE
USA 229 4.0 04:22:01 18° NW 04:28:02 84° NE 04:36:11 10° SE
Cosmos 1484 Rocket 2.3 04:25:14 10° N 04:28:46 83° WNW 04:30:40 25° SSW
Cosmos 1655 Rocket 3.9 04:22:44 10° SSW 04:29:06 76° W 04:35:30 10° N
Cosmos 304 Rocket 3.7 04:26:56 18° NNW 04:30:33 87° ENE 04:35:18 10° SSE
Cosmos 2344 4.4 04:26:26 10° SSW 04:33:59 50° ESE 04:40:55 10° NE
IRAS Rocket 4.4 04:29:17 10° N 04:34:35 49° WNW 04:39:53 10° SW
SKYMED 2 3.8 04:30:36 10° SSE 04:34:54 70° ENE 04:39:14 10° N
S3M 4.2 04:30:46 10° NNW 04:36:37 43° W 04:42:22 10° SSW
Cosmos 2219 3.6 04:35:43 33° WNW 04:37:02 38° WSW 04:42:11 10° S
DELTA 2 R/B (1) 4.1 04:35:55 29° WSW 04:38:26 48° S 04:43:46 10° ESE
BREEZE-M DEB (TANK) 2.3 04:39:15 36° S 04:39:44 42° SSE 04:42:38 10° E
H-2A R/B 2.8 04:39:16 10° N 04:43:10 28° WNW 04:43:10 28° WNW
USA 215 4.1 04:38:39 10° ENE 04:44:59 49° SE 04:51:16 10° SSW
Cosmos 1328 3.5 04:42:16 10° S 04:45:58 85° W 04:49:42 10° N
BREEZE-M DEB (TANK) 2.6 04:45:30 44° W 04:46:17 71° SSW 04:53:45 10° ESE
Cosmos 2333 Rocket 4.1 04:43:24 10° SSE 04:48:23 32° ESE 04:53:22 10° NE
Meteor 1-24 Rocket 4.1 04:46:02 10° SW 04:51:05 37° WNW 04:56:03 10° N
SL-8 R/B 3.6 04:49:43 28° WSW 04:52:13 78° NNW 04:57:00 10° ENE
Cosmos 2278 3.8 04:47:41 10° SSW 04:53:19 83° ESE 04:59:00 10° NNE
Cosmos 2221 Rocket 3.6 04:50:01 10° S 04:54:23 81° E 04:58:50 10° N
ARIANE 5 R/B 3.4 04:49:31 10° NNE 04:54:28 52° E 04:59:26 10° S
ARGOS 3.2 04:49:33 10° N 04:54:49 53° WNW 05:00:04 10° SW
Thor Agena Rocket 3.9 04:51:28 10° N 04:56:19 41° WNW 05:01:06 10° SW
Cosmos 1844 Rocket 3.1 04:55:29 10° NNW 05:01:07 65° ENE 05:06:41 10° SE
NOSS 2-1 (C) 3.6 04:58:22 18° NW 05:01:16 86° NE 05:06:34 10° SE
Cosmos 2322 Rocket 3.1 04:56:41 10° S 05:02:09 52° ESE 05:07:37 10° NE
SOZ 4.0 05:04:03 23° WSW 05:05:33 89° WNW 05:07:35 10° ENE
Sich 1 Rocket 3.5 05:01:57 10° NNW 05:06:24 69° W 05:10:52 10° S
Cosmos 1980 Rocket 3.2 05:05:10 19° W 05:07:32 26° NW 05:12:10 10° N
H-2A R/B 1.9 05:05:07 10° NNE 05:07:34 66° ESE 05:10:01 10° S
Meteor 1-21 Rocket 4.5 05:03:15 10° S 05:08:50 73° E 05:14:23 10° NNE
YAOGAN 11 4.0 05:04:47 10° S 05:09:07 78° WSW 05:13:33 10° NNW
USA 281 3.8 05:05:17 10° S 05:11:13 36° WSW 05:17:12 10° NW
Cosmos 2369 4.4 05:07:06 13° WSW 05:11:31 32° NW 05:16:34 10° N
IRS-1C 4.3 05:07:11 10° NNE 05:12:33 77° ESE 05:17:52 10° S
Cosmos 1378 Rocket 3.9 05:10:31 10° SSW 05:14:41 40° WNW 05:18:52 10° N
Cosmos 1674 Rocket 3.7 05:12:31 10° SSW 05:16:40 47° WNW 05:20:52 10° N
Cosmos 1025 Rocket 3.0 05:12:55 10° S 05:17:09 83° E 05:21:25 10° N
FengYun 1-2 T 4.4 05:12:23 10° N 05:17:49 50° WNW 05:23:13 10° SW
ATLAS CENTAUR R/B 3.2 05:18:24 12° NW 05:18:53 12° NNW 05:20:23 10° N
USA 267 3.8 05:13:03 10° ESE 05:19:20 54° NNE 05:25:41 10° NW
Cosmos 371 Rocket 4.2 05:16:34 11° NW 05:20:26 28° W 05:24:32 10° SSW
ATLAS 3B R/B 3.7 05:15:09 12° NW 05:21:18 31° WSW 05:27:45 10° SSW
ARIANE 6 FM1 Upper Stage 2.7 05:17:33 10° SW 05:21:43 62° NW 05:25:58 10° NE
Okean 2 Rocket 3.4 05:17:44 10° NNW 05:22:00 44° W 05:26:12 10° SSW
COSMO-SKYMED 1 3.1 05:19:02 10° SSW 05:23:01 36° W 05:27:03 10° NNW
Cosmos 1939 Rocket 4.3 05:21:50 10° NNW 05:24:00 15° WNW 05:24:25 15° WNW
Cosmos 1503 Rocket 4.1 05:19:34 10° NNW 05:24:54 82° ENE 05:30:09 10° SSE
Lacrosse 4 Rocket 3.1 05:24:51 13° W 05:25:33 14° WSW 05:27:37 10° SW
Cosmos 1486 Rocket 4.0 05:20:29 10° NNW 05:25:38 64° WSW 05:30:47 10° S
SL-08 R/B 4.1 05:21:36 10° SSE 05:26:16 56° ENE 05:30:52 10° N
Cosmos 332 Rocket 3.8 05:21:23 10° NNW 05:26:16 74° WSW 05:31:06 10° SSE
NOAA 12 4.2 05:21:30 10° N 05:26:42 53° WNW 05:31:50 10° SW
Cosmos 1844 3.7 05:24:08 10° NNW 05:29:49 87° WSW 05:35:34 10° SSE
Cosmos 2219 Rocket 3.8 05:28:00 10° S 05:33:10 39° ESE 05:38:21 10° NE
In-Cosmos 22 Rocket 4.3 05:27:29 10° S 05:33:18 90° W 05:39:05 10° N
Cosmos 2098 Rocket 2.7 05:29:53 10° NNW 05:33:28 44° W 05:36:31 10° SSW
NOSS 2-1 (D) 4.0 05:29:47 10° NW 05:33:36 50° SW 05:38:54 10° SSE
ATLAS 2AS CENTAUR R/B 4.1 05:34:49 10° WNW 05:40:02 21° NNW 05:45:08 10° NNE
USA 59 Rocket 0.8 05:40:13 10° NW 05:44:06 43° SW 05:49:23 10° SSE
Cosmos 2263 Rocket 3.9 05:42:25 10° WNW 05:44:21 12° W 05:46:17 10° WSW
Cosmos 1455 Rocket 3.0 05:40:29 10° N 05:44:52 85° W 05:49:11 10° S
Nadezhda 1 Rocket 3.9 05:39:35 10° NNW 05:45:43 72° W 05:51:45 10° S
Cosmos 1869 3.1 05:49:08 10° NNW 05:52:56 78° W 05:56:45 10° S
Cosmos 1437 Rocket 4.2 05:52:05 10° WSW 05:54:07 14° WNW 05:56:09 10° NNW
Cosmos 2360 Rocket 2.2 05:48:33 10° SSW 05:54:10 79° WNW 05:59:49 10° NNE
SKYMED 3 4.4 05:50:41 10° SSE 05:54:40 88° WSW 05:58:40 10° NNW
Meteor 2-1 Rocket 4.3 05:51:21 10° NNW 05:57:07 83° W 06:02:43 10° S
Cosmos 1709 Rocket 4.1 05:51:04 10° S 05:57:23 88° E 06:03:41 10° N
